Regional Weather Roundup
Issued by NWS

Home | Current Version | Previous Version | Graphics & Text | Print | Product List | Glossary On
Versions: 1 2 3 4 5 6 7 8 9 10 11 12 13 14 15 16 17 18 19 20 21 22 23 24 25 26 27 28 29 30 31 32 33 34 35 36 37 38 39 40 41 42 43 44 45 46 47 48 49 50
000
ASUS43 KOAX 241010
RWRNE

WEATHER ROUNDUP FOR NEBRASKA
NATIONAL WEATHER SERVICE OMAHA NE
400 AM CST FRI FEB 24 2017

NOTES: SATELLITE DATA IS BEING USED TO AUGMENT CLOUD COVER ABOVE
       12000 FEET.
       "FAIR" INDICATES FEW OR NO CLOUDS BELOW 12,000 FEET WITH NO
       SIGNIFICANT WEATHER AND/OR OBSTRUCTIONS TO VISIBILITY.

  * THESE STATIONS DO NOT REPORT WEATHER SUCH AS RAIN...SNOW OR FOG.

NEZ001>004-019>022-054>056-241100-
NEBRASKA PANHANDLE

CITY           SKY/WX    TMP DP  RH WIND       PRES   REMARKS
SCOTTSBLUFF    LGT SNOW  22  16  78 N10       29.91S WCI  11
ALLIANCE       CLOUDY    19  16  88 N17       29.89R FOG     WCI   4
CHADRON        LGT SNOW  22  19  89 N5        29.97S FOG     WCI  16
KIMBALL        LGT SNOW  19  19  98 N8        29.85S WCI   9
SIDNEY         LGT SNOW  20  16  84 N12       29.86S FOG     WCI   8
$$

NEZ057>060-069>072-079>082-241100-
SOUTHWEST NEBRASKA

CITY           SKY/WX    TMP DP  RH WIND       PRES   REMARKS
NORTH PLATTE   LGT SNOW  23  19  85 N23G29    29.82S FOG     WCI   7
IMPERIAL       LGT SNOW  22  18  85 N22       29.84S FOG     WCI   6
LEXINGTON      LGT SNOW  25  22  88 N15       29.79S WCI  12
MCCOOK         LGT SNOW  24  22  91 N16       29.82R FOG     WCI  11
OGALLALA       LGT SNOW  24  20  85 N23G31    29.86S WCI   8
$$

NEZ005>010-023>029-035>040-094-241100-
NORTH CENTRAL NEBRASKA

CITY           SKY/WX    TMP DP  RH WIND       PRES   REMARKS
VALENTINE      CLOUDY    23  19  85 N18G25    29.92R FOG     WCI   9
AINSWORTH      CLOUDY    22  22  96 N26       29.89R WCI   5
BROKEN BOW     FOG       23  21  92 N26G38    29.79R VSB 1   WCI   6
O`NEILL        CLOUDY    23  22  94 N24G31    29.84R WCI   7
ORD            CLOUDY    24  20  84 N25G31    29.79R FOG     WCI   8
THEDFORD       LGT SNOW  24  21  90 N16G26    29.86S WCI  11
$$

NEZ041-046>049-061>064-073>077-083>087-241100-
SOUTH CENTRAL NEBRASKA

CITY           SKY/WX    TMP DP  RH WIND       PRES   REMARKS
GRAND ISLAND   LGT SNOW  26  25  96 N23G30    29.74R FOG     WCI  11
AURORA         MIX PCPN  28  27  96 N18G24    29.72R WCI  15
HASTINGS       CLOUDY    27  24  89 N22G31    29.73R FOG     WCI  13
HEBRON         MIX PCPN  31  29  95 N15G23    29.68S WCI  20
HOLDREGE       CLOUDY    26  24  92 N13G18    29.77R FOG     WCI  14
KEARNEY *      CLOUDY    27  21  80 N15       29.76S WCI  15
YORK           LGT SNOW  28  28 100 N20G26    29.69R WCI  15
$$

NEZ011>018-030>034-042>045-241100-
NORTHEAST NEBRASKA

CITY           SKY/WX    TMP DP  RH WIND       PRES   REMARKS
NORFOLK        LGT SNOW  25  22  88 N22G37    29.74R VSB 1   WCI  10
ALBION         LGT SNOW  27  23  84 N22G33    29.75R WCI  13
BLAIR          LGT SNOW  32  30  94 N16G29    29.61R WCI  21
FREMONT        LGT SNOW  30  30  99 N12G18    29.67R WCI  20
TEKAMAH        LGT SNOW  30  27  88 N24       29.67S VSB 1   WCI  16
WAYNE          LGT SNOW  27  26  94 N23G31    29.75R WCI  13
$$

NEZ050>053-065>068-078-088>093-241100-
SOUTHEAST NEBRASKA

CITY           SKY/WX    TMP DP  RH WIND       PRES   REMARKS
LINCOLN        LGT SNOW  32  30  92 N20G28    29.65R FOG     WCI  20
OMAHA EPPLEY   LGT SNOW  33  27  78 N25G35    29.62S WCI  20
BEATRICE       CLOUDY    33  33  99 N12G20    29.63R FOG     WCI  24
FALLS CITY     CLOUDY    36  33  89 NW10G21   29.54F WCI  28
NEBRASKA CITY  CLOUDY    34  34 100 NE20      29.56F WCI  22
PLATTSMOUTH    CLOUDY    34  30  86 N14G21    29.59R WCI  24
$$

NEZ044-045-051>053-067-241100-
OMAHA AREA

CITY           SKY/WX    TMP DP  RH WIND       PRES   REMARKS
OMAHA EPPLEY   LGT SNOW  33  27  78 N25G35    29.62S WCI  20
BLAIR          LGT SNOW  32  30  94 N16G29    29.61R WCI  21
FREMONT        LGT SNOW  30  30  99 N12G18    29.67R WCI  20
MILLARD        LGT RAIN  34  32  91 N7G21     29.63R WCI  28
OFFUTT AFB     LGT RAIN  32  30  93 N18G25    29.60R WCI  20
PLATTSMOUTH    CLOUDY    34  30  86 N14G21    29.59R WCI  24
WAHOO          LGT SNOW  30  29  94 N20       29.65R WCI  18
$$



USA.gov is the U.S. government's official web portal to all federal, state and local government web resources and services.